Погода в Чердыни

Погода в Чердыни : погода сейчас, прогноз погоды и архив. Всё, что Вы хотите узнать о погоде в Чердыни!

Хотите узнать прогноз погоды в Чердыни? Тогда Вам сюда: Погода в Чердыни

Поиск расширенной информации на нашем сайте:

Другие новости

Новости СМИ2

Главная страница сайта

Новости сайта

03.07.2017

Напоминаем, что на нашем специализированном сайте Метеоцентр.Азия вы можете получить высокодетализированные автоматические прогнозы погоды по пунктам России, СНГ и мира в авиационном формате (включающие направление и скорость ветра, видимость, явления погоды, количество и форму облачности, нижнюю и верхнюю границу облачности).


Погода в Чердыни - сегодня

Время (UTC), дата Ветер
(°,м/с) 
Видим.   Явления Облачность Т
(°С)
Тd
(°С)
f(%) Тe
(°С)
Pmin
(гПа)
dP
(гПа)
Po
(мм)
O2
(г/м3)
Тmin Tmax R s Состояние
почвы
21 15.09.17 120 (ЮВ) 20000 м  в посл. час ливневой дождь  10/10 300 м кучево-дожд. 
[Cb cap]
+11 +9.7 92 +12  1006.1  -1.3  736  283           
00 16.09.17 140 (ЮВ) 20000 м  слаб. ливневой дождь  9/9 300 м кучево-дожд. 
[Cb cap]
+12 +10.7 92 +14  1004.5  -1.5  735  282           
03 16.09.17 170 (Ю) 6-10{10}  20000 м    10/8 300 м верхняя 
[Sc diur, vesp|Ci]
+13.8 +11.5 86 +17  1002.5  -1.8  734  279  +11        влажная 
03 17.09.17 230 (ЮЗ) 5-10{12}  20000 м  в посл. час ливневой дождь  9/9 300 м кучево-дожд. 
[Cb cap]
+9.7 +7.4 86 +8  1006  -0.1  736  285  +8.5      влажная 
18 17.09.17 280 (З) 20000 м  {ливн. осадки}  10/10 300 м кучево-дожд. 
[Cb cap]
+9.3 +6.5 83 +8  1008.4  0.1  738  286           
21 17.09.17 270 (З) 4{11}  20000 м    3/3 300 м 
[Sc]
+6.2 +2.6 78 +5  1010.4  1.6  739  291           
00 18.09.17 270 (З) 4{10}  20000 м    9/9 300 м 
[Sc]
+5.1 +2 80 +3  1012.5  1.9  740  293           
03 18.09.17 260 (З) 4{12}  20000 м    9/9 300 м 
[Sc]
+4.4 +1.3 80 +3  1014  1.4  741  294  +4.3    0.3    влажная 
06 18.09.17 250 (З) 20000 м  слаб. ливневой дождь  9/8 300 м кучево-дожд., верхняя 
[Cb cap|Ci]
+4.7 +1.7 81 +3  1016.1  2.1  743  294           
18 18.09.17 260 (З) 20000 м  {ливн. осадки}  9/9 300 м 
[Sc]
+5.1 +1.2 76 +6  1019.6  0.5  746  295           
21 18.09.17 тихо ()   20000 м    10/10 300 м 
[Sc]
+4.8 +2.3 84 +5  1019.8  0.2  746  295           
00 19.09.17 090 (В) 20000 м    6/3 300 м верхняя 
[Sc|Ci fib]
+3.8 +0.9 81 +5  1020.1  0.1  746  296           
03 19.09.17 080 (В) 20000 м    9/3 300 м средняя 
[Sc|Ac As]
+2.7 +2.1 96 +2  1019  -1.2  745  297  +2.6        влажная 
09 19.09.17 070 (В) 20000 м  слаб. дождь  10/10 300 м 
[Frnb|Ns]
+5 +2.8 86 +4  1015.9  -1.8  743  293           
12 19.09.17 070 (В) 20000 м  слаб. дождь  10/10 300 м 
[Ns]
+5.3 +4 91 +4  1013.4  -2.3  741  292           
18 19.09.17 120 (ЮВ) 4000 м  дымка{гроза, ливн. осадки}  10/10 300 м кучево-дожд. 
[Cb cap]
+7.6 +7.2 97 +7  1007.6  -3.3  737  288           
21 19.09.17 130 (ЮВ) 0200 м  слаб. морось{туман}  ?/?  
+8.1 +7.7 97 +8  1006.5  -1  736  287           
00 20.09.17 230 (ЮЗ) 0200 м  туман{дождь, морось}  ?/?  
+9.6 +9.2 97 +10  1006.2  -0.1  736  285           
03 20.09.17 240 (ЮЗ) 20000 м  {дождь, туман}  10/10 300 м 
[Frnb|Ns]
+10.1 +9.8 98 +11  1007.6  1.5  737  285  +6.6      влажная 
06 20.09.17 230 (ЮЗ) 20000 м  в посл. час ливневой дождь  10/10 300 м кучево-дожд. 
[Cb cap]
+10.9 +10.4 97 +12  1008.8  1.2  738  284           
09 20.09.17 230 (ЮЗ) 10 км  слаб. ливневой дождь  10/10 300 м кучево-дожд. 
[Cb cap]
+11.7 +10.9 95 +14  1009.9  1.1  739  283           
18 20.09.17 290 (З) 4000 м  дымка{ливн. осадки, дождь}  10/10 300 м 
[Frnb|Ns]
+6 +5.5 97 +4  1016.8  1.8  744  292           
21 20.09.17 320 (СЗ) 2000 м  слаб. дождь  10/10 300 м 
[Frnb|Ns]
+5 +4.6 97 +6  1018.5  1.6  745  294           
00 21.09.17 350 (С) 0500 м  слаб. дождь{туман}  ?/?  
+4.8 +4.4 97 +4  1020.4  1.8  746  295           
03 21.09.17 030 (СВ) 2000 м  дождь{туман}  10/10 300 м 
[Frnb|Ns]
+4.7 +4.4 98 +4  1023.3  2.8  748  296  +4.7      влажная 
Время (UTC), дата Ветер
(°,м/с) 
Видим.   Явления Облачность Т
(°С)
Тd
(°С)
f(%) Тe
(°С)
Pmin
(гПа)
dP
(гПа)
Po
(мм)
O2
(г/м3)
Тmin Tmax R s Состояние
почвы

Для получения пояснительной информации подведите курсор к названию столбца.

ПОГОДА в Чердыни - архив

Всё, что Вы хотите узнать о погоде в Чердыни - удобно и подробно!

Выберите нужную дату (начиная с 1 января 2015* года) и нажмите кнопку "Найти".
Будут отображены архивные сводки погоды по пункту Чердынь, начиная с указанной даты.


Отображать данные в формате CSV (для использования в таблицах Excel)


Внимание! Наш архив погоды предназначен исключительно для личного некоммерческого использования в познавательных целях. Если Вам необходимы официальные справки о состоянии погоды (для производственных, юридических, коммерческих и т.п. целей), обращайтесь в органы Росгидромета.

*Примечание: данная дата относится к архиву по метеостанциям СССР (Россия, СНГ, Балтия).
Архив по метеостанциям Зарубежной Европы и Азии (кроме Китая) хранится 10 дней, по другим регионам земного шара (Китай, Африка, Америка, Австралия, Океания) - 1 день.

Чердынь - район местоположения метеостанции


Название, широта, долгота, высота метеостанции:
Чердынь 60.4°ш. 56.5°д. 207 м над ур. моря [Российская Федерация]

Дополнительная информация

В oтличие oт бoльшинства пoгoдных сайтoв мы публикуем пoдрoбную метеoинфoрмацию в детальнoм прoфессиoнальнoм фoрмате.

Характеристики температуры и влажнoсти вoздуха измеряются на высoте 2 м в тени вдали oт зданий и деревьев.
Скoрoсть ветра измеряется на высoте 10 м (на урoвне рoста челoвека скoрoсть ветра ниже в 1.5-2 раза). Если метеoстанция нахoдится в гoрoде или в лесу, тo скoрoсть ветра занижена на 2-4 м/с пo сравнению с oткрытым местoм. Скoрoсть ветра над акватoриями крупных рек и oзёр, а также на вершинах хoлмoв на 2-5 м/с выше, чем в oбычных услoвиях.
Атмoсфернoе давление в разных тoчках местнoсти мoжет значительнo oтличаться oт давления на метеoстанции, в зависимoсти oт услoвий рельефа (при пoдъёме на 10 м давление пoнижается примернo на 1 мм рт.ст.).